EW0397 Weather Reports


time (UTC)temp
C
wind
direction
speed
KPH
gust
KPH
rain 1hr
cm
rain 24hr
cm
rain mn
cm
humidity
%
barometer
mb
20260509184600 11 307 0.0 0.0 0.00 0.15 0.15 79 1013.7
20260509183048 11 307 0.0 0.0 0.00 0.15 0.15 79 1013.6
20260509181548 11 307 0.0 0.0 0.00 0.15 0.15 78 1013.7
20260509180047 11 307 0.0 0.0 0.00 0.15 0.15 76 1013.5
20260509174546 12 307 0.0 0.0 0.00 0.15 0.15 75 1013.4
20260509173055 12 307 0.0 0.0 0.00 0.15 0.15 74 1013.4
20260509171603 12 307 0.0 0.0 0.00 0.15 0.15 72 1013.4
20260509170045 13 307 0.0 0.0 0.00 0.15 0.15 71 1013.3
20260509164544 13 307 0.0 0.0 0.00 0.15 0.15 70 1013.2
20260509163046 13 307 0.0 0.0 0.00 0.15 0.15 68 1013.1
20260509161546 14 307 0.0 0.0 0.03 0.15 0.15 66 1012.8
20260509160042 15 307 0.0 0.0 0.03 0.15 0.15 64 1012.7
20260509154546 15 307 0.0 0.0 0.03 0.15 0.15 61 1012.6
20260509153041 16 307 0.0 0.0 0.03 0.15 0.15 60 1012.5
20260509151539 17 307 0.0 0.0 0.00 0.13 0.13 58 1012.5
20260509150041 17 307 0.0 0.0 0.00 0.13 0.13 57 1012.5
20260509144612 18 312 0.0 0.0 0.13 0.13 0.13 54 1012.4
20260509143045 18 250 0.0 0.0 0.13 0.13 0.13 52 1012.4
20260509141542 18 291 0.0 0.0 0.13 0.13 0.13 52 1012.4
20260509140036 19 302 0.0 0.0 0.13 0.13 0.13 52 1012.5
20260509134535 20 310 0.0 0.0 0.00 0.00 0.00 50 1012.4
20260509133035 20 285 0.0 0.0 0.00 0.00 0.00 48 1012.5
20260509131539 20 292 0.0 0.0 0.00 0.00 0.00 48 1012.6
20260509130032 20 217 0.0 0.0 0.00 0.00 0.00 48 1012.9
20260509124538 20 308 0.0 0.0 0.00 0.00 0.00 48 1013.0
20260509123030 20 324 0.0 0.0 0.00 0.00 0.00 47 1013.0
20260509121531 20 253 0.0 0.0 0.00 0.00 0.00 50 1013.1
20260509120024 20 283 0.0 0.0 0.00 0.00 0.00 51 1013.3
20260509114521 19 233 0.0 0.0 0.00 0.00 0.00 51 1013.5
20260509113019 19 260 0.0 0.0 0.00 0.00 0.00 52 1013.8
20260509111515 18 264 0.0 0.0 0.00 0.00 0.00 54 1014.0
20260509110013 18 283 0.0 0.0 0.00 0.00 0.00 52 1014.5
20260509104527 18 310 0.0 0.0 0.00 0.00 0.00 52 1014.8
20260509103006 17 316 0.0 0.0 0.00 0.00 0.00 54 1015.0
20260509101502 17 290 0.0 0.0 0.00 0.00 0.00 56 1015.2
20260509100106 17 315 0.0 0.0 0.00 0.00 0.00 56 1015.6
20260509094556 16 91 0.0 0.0 0.00 0.00 0.00 58 1016.1
20260509093056 16 227 0.0 0.0 0.00 0.00 0.00 59 1016.3
20260509091552 16 285 0.0 0.0 0.00 0.00 0.00 60 1016.5
20260509090049 15 300 0.0 0.0 0.00 0.00 0.00 61 1016.6
20260509084552 15 293 0.0 0.0 0.00 0.00 0.00 62 1016.8
20260509083044 14 302 0.0 0.0 0.00 0.00 0.00 63 1017.0
20260509081545 13 324 0.0 0.0 0.00 0.00 0.00 65 1017.2
20260509080040 13 296 0.0 0.0 0.00 0.00 0.00 66 1017.4
20260509074535 12 277 0.0 0.0 0.00 0.00 0.00 70 1017.6
20260509073027 11 179 0.0 0.0 0.00 0.00 0.00 74 1017.7
20260509071522 10 305 0.0 0.0 0.00 0.00 0.00 80 1017.6
20260509070019 8 305 0.0 0.0 0.00 0.00 0.00 85 1017.4
20260509064514 7 305 0.0 0.0 0.00 0.00 0.00 89 1017.1
20260509063009 6 305 0.0 0.0 0.00 0.00 0.00 95 1016.9
20260509061506 5 305 0.0 0.0 0.00 0.00 0.00 97 1016.7
20260509060005 5 305 0.0 0.0 0.00 0.00 0.00 97 1016.7
20260509054504 4 305 0.0 0.0 0.00 0.00 0.00 98 1016.6
20260509053002 3 305 0.0 0.0 0.00 0.00 0.00 97 1016.4
20260509051601 3 305 0.0 0.0 0.00 0.00 0.00 96 1016.4
20260509050101 3 305 0.0 0.0 0.00 0.00 0.00 96 1016.2
20260509044558 3 305 0.0 0.0 0.00 0.00 0.00 96 1016.2
20260509043104 3 305 0.0 0.0 0.00 0.00 0.00 96 1016.0
20260509041555 3 305 0.0 0.0 0.00 0.00 0.00 95 1015.8
20260509040056 3 305 0.0 0.0 0.00 0.00 0.00 95 1015.7
20260509034601 3 305 0.0 0.0 0.00 0.00 0.00 95 1015.7
20260509033052 3 305 0.0 0.0 0.00 0.00 0.00 95 1015.7
20260509031559 3 305 0.0 0.0 0.00 0.00 0.00 95 1015.7
20260509030051 3 305 0.0 0.0 0.00 0.00 0.00 95 1015.7
20260509024549 3 305 0.0 0.0 0.00 0.00 0.00 94 1015.5
20260509023056 4 305 0.0 0.0 0.00 0.00 0.00 95 1015.4
20260509021547 4 305 0.0 0.0 0.00 0.00 0.00 95 1015.6
20260509020050 4 305 0.0 0.0 0.00 0.00 0.00 94 1015.5
20260509014546 4 305 0.0 0.0 0.00 0.00 0.00 94 1015.6
20260509013106 4 305 0.0 0.0 0.00 0.00 0.00 94 1015.7
20260509011544 4 305 0.0 0.0 0.00 0.00 0.00 94 1015.7
20260509010042 4 305 0.0 0.0 0.00 0.00 0.00 93 1015.7
20260509004541 5 305 0.0 0.0 0.00 0.00 0.00 93 1015.7
20260509003040 5 305 0.0 0.0 0.00 0.00 0.00 93 1015.6
20260509001539 5 305 0.0 0.0 0.00 0.00 0.00 94 1015.7
20260509000038 5 305 0.0 0.0 0.00 0.00 0.00 93 1015.7
20260508234537 5 305 0.0 0.0 0.00 0.00 0.00 93 1015.9
20260508233037 5 305 0.0 0.0 0.00 0.00 0.00 93 1015.8
20260508231535 5 305 0.0 0.0 0.00 0.00 0.00 93 1015.7
20260508230104 5 305 0.0 0.0 0.00 0.00 0.00 93 1015.6
20260508224554 5 305 0.0 0.0 0.00 0.00 0.00 92 1015.7
20260508223033 5 305 0.0 0.0 0.00 0.00 0.00 92 1015.5
20260508221529 5 305 0.0 0.0 0.00 0.00 0.00 91 1015.4
20260508220026 5 305 0.0 0.0 0.00 0.00 0.00 91 1015.4
20260508214526 6 305 0.0 0.0 0.00 0.00 0.00 90 1015.6
20260508213026 6 305 0.0 0.0 0.00 0.00 0.00 90 1015.7
20260508211525 6 305 0.0 0.0 0.00 0.00 0.00 90 1015.9
20260508210026 6 305 0.0 0.0 0.00 0.00 0.00 90 1016.0
20260508204524 6 305 0.0 0.0 0.00 0.00 0.00 90 1016.0
20260508203024 6 305 0.0 0.0 0.00 0.00 0.00 90 1016.0
20260508201528 6 302 0.0 0.0 0.00 0.00 0.00 90 1016.1
20260508200026 7 302 0.0 0.0 0.00 0.00 0.00 89 1016.0
20260508194523 7 302 0.0 0.0 0.00 0.00 0.00 88 1016.0
20260508193048 7 302 0.0 0.0 0.00 0.00 0.00 88 1015.9
20260508191525 7 302 0.0 0.0 0.00 0.00 0.00 87 1015.8
20260508190032 7 302 0.0 0.0 0.00 0.00 0.00 86 1015.8